Year,Month,Day,Hour,Minute,Value (Times are PST for temperature in C)
2009,07,28,00,00,24.10
2009,07,28,00,01,24.00
2009,07,28,00,02,24.00
2009,07,28,00,03,24.00
2009,07,28,00,04,24.00
2009,07,28,00,05,24.00
2009,07,28,00,06,23.90
2009,07,28,00,07,23.90
2009,07,28,00,08,23.90
2009,07,28,00,09,23.90
2009,07,28,00,10,23.90
2009,07,28,00,11,23.90
2009,07,28,00,12,23.90
2009,07,28,00,13,23.90
2009,07,28,00,14,23.90
2009,07,28,00,15,23.90
2009,07,28,00,16,24.00
2009,07,28,00,17,24.00
2009,07,28,00,18,24.10
2009,07,28,00,19,24.10
2009,07,28,00,20,24.10
2009,07,28,00,21,24.10
2009,07,28,00,22,24.10
2009,07,28,00,23,24.20
2009,07,28,00,24,24.20
2009,07,28,00,25,24.20
2009,07,28,00,26,24.20
2009,07,28,00,27,24.20
2009,07,28,00,28,24.20
2009,07,28,00,29,24.20
2009,07,28,00,30,24.20
2009,07,28,00,31,24.20
2009,07,28,00,32,24.20
2009,07,28,00,33,24.20
2009,07,28,00,34,24.20
2009,07,28,00,35,24.20
2009,07,28,00,36,24.10
2009,07,28,00,37,24.10
2009,07,28,00,38,24.10
2009,07,28,00,39,24.10
2009,07,28,00,40,24.10
2009,07,28,00,41,24.10
2009,07,28,00,42,24.10
2009,07,28,00,43,24.10
2009,07,28,00,44,24.10
2009,07,28,00,45,24.00
2009,07,28,00,46,24.00
2009,07,28,00,47,24.00
2009,07,28,00,48,24.00
2009,07,28,00,49,24.00
2009,07,28,00,50,23.90
2009,07,28,00,51,23.90
2009,07,28,00,52,23.90
2009,07,28,00,53,23.90
2009,07,28,00,54,23.90
2009,07,28,00,55,23.90
2009,07,28,00,56,23.90
2009,07,28,00,57,23.90
2009,07,28,00,58,23.90
2009,07,28,00,59,23.90
2009,07,28,01,00,23.90
2009,07,28,01,01,23.90
2009,07,28,01,02,23.80
2009,07,28,01,03,23.80
2009,07,28,01,04,23.80
2009,07,28,01,05,23.80
2009,07,28,01,06,23.80
2009,07,28,01,07,23.80
2009,07,28,01,08,23.70
2009,07,28,01,09,23.70
2009,07,28,01,10,23.70
2009,07,28,01,11,23.70
2009,07,28,01,12,23.60
2009,07,28,01,13,23.60
2009,07,28,01,14,23.60
2009,07,28,01,15,23.50
2009,07,28,01,16,23.50
2009,07,28,01,17,23.50
2009,07,28,01,18,23.40
2009,07,28,01,19,23.40
2009,07,28,01,20,23.40
2009,07,28,01,21,23.40
2009,07,28,01,22,23.40
2009,07,28,01,23,23.30
2009,07,28,01,24,23.30
2009,07,28,01,25,23.30
2009,07,28,01,26,23.30
2009,07,28,01,27,23.20
2009,07,28,01,28,23.20
2009,07,28,01,29,23.20
2009,07,28,01,30,23.20
2009,07,28,01,31,23.10
2009,07,28,01,32,23.10
2009,07,28,01,33,23.10
2009,07,28,01,34,23.00
2009,07,28,01,35,23.00
2009,07,28,01,36,23.00
2009,07,28,01,37,22.90
2009,07,28,01,38,22.90
2009,07,28,01,39,22.90
2009,07,28,01,40,22.90
2009,07,28,01,41,22.80
2009,07,28,01,42,22.80
2009,07,28,01,43,22.80
2009,07,28,01,44,22.80
2009,07,28,01,45,22.80
2009,07,28,01,46,22.70
2009,07,28,01,47,22.60
2009,07,28,01,48,22.60
2009,07,28,01,49,22.60
2009,07,28,01,50,22.50
2009,07,28,01,51,22.50
2009,07,28,01,52,22.40
2009,07,28,01,53,22.40
2009,07,28,01,54,22.40
2009,07,28,01,55,22.40
2009,07,28,01,56,22.30
2009,07,28,01,57,22.30
2009,07,28,01,58,22.30
2009,07,28,01,59,22.30
2009,07,28,02,00,22.30
2009,07,28,02,01,22.30
2009,07,28,02,02,22.30
2009,07,28,02,03,22.30
2009,07,28,02,04,22.30
2009,07,28,02,05,22.30
2009,07,28,02,06,22.30
2009,07,28,02,07,22.30
2009,07,28,02,08,22.20
2009,07,28,02,09,22.20
2009,07,28,02,10,22.20
2009,07,28,02,11,22.20
2009,07,28,02,12,22.20
2009,07,28,02,13,22.20
2009,07,28,02,14,22.20
2009,07,28,02,15,22.10
2009,07,28,02,16,22.10
2009,07,28,02,17,22.10
2009,07,28,02,18,22.10
2009,07,28,02,19,22.00
2009,07,28,02,20,22.00
2009,07,28,02,21,22.00
2009,07,28,02,22,21.90
2009,07,28,02,23,21.90
2009,07,28,02,24,21.80
2009,07,28,02,25,21.80
2009,07,28,02,26,21.80
2009,07,28,02,27,21.70
2009,07,28,02,28,21.70
2009,07,28,02,29,21.60
2009,07,28,02,30,21.60
2009,07,28,02,31,21.50
2009,07,28,02,32,21.50
2009,07,28,02,33,21.50
2009,07,28,02,34,21.40
2009,07,28,02,35,21.40
2009,07,28,02,36,21.40
2009,07,28,02,37,21.40
2009,07,28,02,38,21.30
2009,07,28,02,39,21.30
2009,07,28,02,40,21.30
2009,07,28,02,41,21.30
2009,07,28,02,42,21.30
2009,07,28,02,43,21.30
2009,07,28,02,44,21.20
2009,07,28,02,45,21.20
2009,07,28,02,46,21.20
2009,07,28,02,47,21.20
2009,07,28,02,48,21.20
2009,07,28,02,49,21.20
2009,07,28,02,50,21.20
2009,07,28,02,51,21.20
2009,07,28,02,52,21.10
2009,07,28,02,53,21.10
2009,07,28,02,54,21.10
2009,07,28,02,55,21.10
2009,07,28,02,56,21.10
2009,07,28,02,57,21.10
2009,07,28,02,58,21.10
2009,07,28,02,59,21.10
2009,07,28,03,00,21.10
2009,07,28,03,01,21.10
2009,07,28,03,02,21.10
2009,07,28,03,03,21.10
2009,07,28,03,04,21.10
2009,07,28,03,05,21.10
2009,07,28,03,06,21.10
2009,07,28,03,07,21.10
2009,07,28,03,08,21.10
2009,07,28,03,09,21.10
2009,07,28,03,10,21.10
2009,07,28,03,11,21.10
2009,07,28,03,12,21.10
2009,07,28,03,13,21.10
2009,07,28,03,14,21.10
2009,07,28,03,15,21.10
2009,07,28,03,16,21.10
2009,07,28,03,17,21.10
2009,07,28,03,18,21.10
2009,07,28,03,19,21.10
2009,07,28,03,20,21.20
2009,07,28,03,21,21.20
2009,07,28,03,22,21.20
2009,07,28,03,23,21.20
2009,07,28,03,24,21.20
2009,07,28,03,25,21.20
2009,07,28,03,26,21.20
2009,07,28,03,27,21.20
2009,07,28,03,28,21.20
2009,07,28,03,29,21.20
2009,07,28,03,30,21.20
2009,07,28,03,35,21.10
2009,07,28,03,36,21.20
2009,07,28,03,37,21.10
2009,07,28,03,38,21.10
2009,07,28,03,39,21.10
2009,07,28,03,40,21.10
2009,07,28,03,41,21.10
2009,07,28,03,42,21.10
2009,07,28,03,43,21.10
2009,07,28,03,44,21.10
2009,07,28,03,45,21.00
2009,07,28,03,46,21.00
2009,07,28,03,47,21.00
2009,07,28,03,48,20.90
2009,07,28,03,49,20.90
2009,07,28,03,50,20.90
2009,07,28,03,51,20.90
2009,07,28,03,52,20.90
2009,07,28,03,53,20.90
2009,07,28,03,54,20.80
2009,07,28,03,55,20.80
2009,07,28,03,56,20.80
2009,07,28,03,57,20.80
2009,07,28,03,58,20.80
2009,07,28,03,59,20.70
2009,07,28,04,00,20.70
2009,07,28,04,01,20.70
2009,07,28,04,02,20.70
2009,07,28,04,03,20.60
2009,07,28,04,04,20.60
2009,07,28,04,05,20.50
2009,07,28,04,06,20.50
2009,07,28,04,07,20.40
2009,07,28,04,08,20.30
2009,07,28,04,09,20.20
2009,07,28,04,10,20.10
2009,07,28,04,11,20.00
2009,07,28,04,12,20.00
2009,07,28,04,13,19.90
2009,07,28,04,14,19.80
2009,07,28,04,15,19.80
2009,07,28,04,16,19.70
2009,07,28,04,17,19.70
2009,07,28,04,18,19.70
2009,07,28,04,19,19.60
2009,07,28,04,20,19.60
2009,07,28,04,21,19.60
2009,07,28,04,22,19.60
2009,07,28,04,23,19.60
2009,07,28,04,24,19.60
2009,07,28,04,25,19.60
2009,07,28,04,26,19.60
2009,07,28,04,27,19.60
2009,07,28,04,28,19.60
2009,07,28,04,29,19.60
2009,07,28,04,30,19.60
2009,07,28,04,31,19.60
2009,07,28,04,32,19.60
2009,07,28,04,33,19.60
2009,07,28,04,34,19.60
2009,07,28,04,35,19.60
2009,07,28,04,36,19.60
2009,07,28,04,37,19.50
2009,07,28,04,38,19.50
2009,07,28,04,39,19.50
2009,07,28,04,40,19.40
2009,07,28,04,41,19.30
2009,07,28,04,42,19.30
2009,07,28,04,43,19.20
2009,07,28,04,44,19.10
2009,07,28,04,45,19.10
2009,07,28,04,46,19.00
2009,07,28,04,47,19.00
2009,07,28,04,48,19.00
2009,07,28,04,49,19.00
2009,07,28,04,50,19.00
2009,07,28,04,51,19.00
2009,07,28,04,52,18.90
2009,07,28,04,53,18.90
2009,07,28,04,54,18.90
2009,07,28,04,55,18.90
2009,07,28,04,56,18.80
2009,07,28,04,57,18.70
2009,07,28,04,58,18.70
2009,07,28,04,59,18.60
2009,07,28,05,00,18.50
2009,07,28,05,01,18.50
2009,07,28,05,02,18.40
2009,07,28,05,03,18.40
2009,07,28,05,04,18.40
2009,07,28,05,05,18.30
2009,07,28,05,06,18.30
2009,07,28,05,07,18.20
2009,07,28,05,08,18.20
2009,07,28,05,09,18.10
2009,07,28,05,10,18.10
2009,07,28,05,11,18.10
2009,07,28,05,12,18.00
2009,07,28,05,13,18.00
2009,07,28,05,14,17.90
2009,07,28,05,15,17.90
2009,07,28,05,16,17.90
2009,07,28,05,17,17.90
2009,07,28,05,18,17.80
2009,07,28,05,19,17.80
2009,07,28,05,20,17.80
2009,07,28,05,21,17.80
2009,07,28,05,22,17.70
2009,07,28,05,23,17.70
2009,07,28,05,24,17.70
2009,07,28,05,25,17.70
2009,07,28,05,26,17.70
2009,07,28,05,27,17.70
2009,07,28,05,28,17.70
2009,07,28,05,29,17.70
2009,07,28,05,30,17.70
2009,07,28,05,31,17.70
2009,07,28,05,32,17.70
2009,07,28,05,33,17.80
2009,07,28,05,34,17.80
2009,07,28,05,35,17.80
2009,07,28,05,36,17.80
2009,07,28,05,37,17.80
2009,07,28,05,38,17.80
2009,07,28,05,39,17.90
2009,07,28,05,40,17.90
2009,07,28,05,41,17.90
2009,07,28,05,42,17.90
2009,07,28,05,43,17.90
2009,07,28,05,44,17.90
2009,07,28,05,45,17.90
2009,07,28,05,46,17.90
2009,07,28,05,47,17.90
2009,07,28,05,48,17.90
2009,07,28,05,49,17.90
2009,07,28,05,50,17.90
2009,07,28,05,51,17.90
2009,07,28,05,52,17.90
2009,07,28,05,53,17.90
2009,07,28,05,54,17.90
2009,07,28,05,55,17.90
2009,07,28,05,56,17.90
2009,07,28,05,57,17.90
2009,07,28,05,58,18.00
2009,07,28,05,59,18.00
2009,07,28,06,00,18.00
2009,07,28,06,01,18.10
2009,07,28,06,02,18.10
2009,07,28,06,03,18.10
2009,07,28,06,04,18.10
2009,07,28,06,05,18.20
2009,07,28,06,06,18.20
2009,07,28,06,07,18.20
2009,07,28,06,08,18.20
2009,07,28,06,09,18.20
2009,07,28,06,10,18.20
2009,07,28,06,11,18.20
2009,07,28,06,12,18.20
2009,07,28,06,13,18.20
2009,07,28,06,14,18.20
2009,07,28,06,15,18.20
2009,07,28,06,16,18.20
2009,07,28,06,17,18.30
2009,07,28,06,18,18.30
2009,07,28,06,19,18.30
2009,07,28,06,20,18.30
2009,07,28,06,21,18.30
2009,07,28,06,22,18.30
2009,07,28,06,23,18.40
2009,07,28,06,24,18.40
2009,07,28,06,25,18.40
2009,07,28,06,26,18.50
2009,07,28,06,27,18.50
2009,07,28,06,28,18.60
2009,07,28,06,29,18.60
2009,07,28,06,30,18.60
2009,07,28,06,31,18.60
2009,07,28,06,32,18.70
2009,07,28,06,33,18.70
2009,07,28,06,34,18.70
2009,07,28,06,35,18.70
2009,07,28,06,36,18.80
2009,07,28,06,37,18.80
2009,07,28,06,38,18.80
2009,07,28,06,39,18.80
2009,07,28,06,40,18.90
2009,07,28,06,41,18.90
2009,07,28,06,42,18.90
2009,07,28,06,43,19.00
2009,07,28,06,44,19.00
2009,07,28,06,45,19.10
2009,07,28,06,46,19.10
2009,07,28,06,47,19.10
2009,07,28,06,48,19.20
2009,07,28,06,49,19.20
2009,07,28,06,50,19.20
2009,07,28,06,51,19.30
2009,07,28,06,52,19.30
2009,07,28,06,53,19.30
2009,07,28,06,54,19.40
2009,07,28,06,55,19.40
2009,07,28,06,56,19.40
2009,07,28,06,57,19.40
2009,07,28,06,58,19.50
2009,07,28,06,59,19.50
2009,07,28,07,00,19.60
2009,07,28,07,01,19.60
2009,07,28,07,02,19.60
2009,07,28,07,03,19.60
2009,07,28,07,04,19.70
2009,07,28,07,05,19.70
2009,07,28,07,06,19.70
2009,07,28,07,07,19.80
2009,07,28,07,08,19.80
2009,07,28,07,09,19.80
2009,07,28,07,10,19.90
2009,07,28,07,11,19.90
2009,07,28,07,12,19.90
2009,07,28,07,13,20.00
2009,07,28,07,14,20.00
2009,07,28,07,15,20.00
2009,07,28,07,16,20.10
2009,07,28,07,17,20.10
2009,07,28,07,18,20.20
2009,07,28,07,19,20.20
2009,07,28,07,20,20.30
2009,07,28,07,21,20.30
2009,07,28,07,22,20.40
2009,07,28,07,23,20.40
2009,07,28,07,24,20.40
2009,07,28,07,25,20.50
2009,07,28,07,26,20.50
2009,07,28,07,27,20.60
2009,07,28,07,28,20.70
2009,07,28,07,29,20.70
2009,07,28,07,30,20.80
2009,07,28,07,31,20.80
2009,07,28,07,32,20.80
2009,07,28,07,33,20.80
2009,07,28,07,34,20.90
2009,07,28,07,35,20.90
2009,07,28,07,36,20.90
2009,07,28,07,37,20.90
2009,07,28,07,38,20.90
2009,07,28,07,39,20.90
2009,07,28,07,40,20.90
2009,07,28,07,41,20.90
2009,07,28,07,42,20.90
2009,07,28,07,43,20.90
2009,07,28,07,44,20.90
2009,07,28,07,45,20.90
2009,07,28,07,46,20.90
2009,07,28,07,47,20.80
2009,07,28,07,48,20.80
2009,07,28,07,49,20.80
2009,07,28,07,50,20.80
2009,07,28,07,51,20.80
2009,07,28,07,52,20.80
2009,07,28,07,53,20.80
2009,07,28,07,54,20.80
2009,07,28,07,55,20.90
2009,07,28,07,56,20.90
2009,07,28,07,57,20.90
2009,07,28,07,58,20.90
2009,07,28,07,59,21.00
2009,07,28,08,00,21.10
2009,07,28,08,01,21.20
2009,07,28,08,02,21.30
2009,07,28,08,03,21.40
2009,07,28,08,04,21.50
2009,07,28,08,05,21.60
2009,07,28,08,06,21.70
2009,07,28,08,07,21.80
2009,07,28,08,08,21.90
2009,07,28,08,09,22.00
2009,07,28,08,10,22.10
2009,07,28,08,11,22.20
2009,07,28,08,12,22.20
2009,07,28,08,13,22.30
2009,07,28,08,14,22.40
2009,07,28,08,15,22.40
2009,07,28,08,16,22.50
2009,07,28,08,17,22.60
2009,07,28,08,18,22.60
2009,07,28,08,19,22.70
2009,07,28,08,20,22.80
2009,07,28,08,21,22.90
2009,07,28,08,22,23.00
2009,07,28,08,23,23.00
2009,07,28,08,24,23.10
2009,07,28,08,25,23.20
2009,07,28,08,26,23.30
2009,07,28,08,27,23.40
2009,07,28,08,28,23.50
2009,07,28,08,29,23.60
2009,07,28,08,30,23.80
2009,07,28,08,31,23.90
2009,07,28,08,32,24.00
2009,07,28,08,33,24.10
2009,07,28,08,34,24.20
2009,07,28,08,35,24.30
2009,07,28,08,36,24.30
2009,07,28,08,37,24.40
2009,07,28,08,38,24.50
2009,07,28,08,39,24.50
2009,07,28,08,40,24.50
2009,07,28,08,41,24.60
2009,07,28,08,42,24.60
2009,07,28,08,43,24.60
2009,07,28,08,44,24.60
2009,07,28,08,45,24.60
2009,07,28,08,46,24.70
2009,07,28,08,47,24.70
2009,07,28,08,48,24.80
2009,07,28,08,49,24.80
2009,07,28,08,50,24.80
2009,07,28,08,51,24.80
2009,07,28,08,52,24.80
2009,07,28,08,53,24.90
2009,07,28,08,54,24.90
2009,07,28,08,55,24.90
2009,07,28,08,56,24.80
2009,07,28,08,57,24.80
2009,07,28,08,58,24.80
2009,07,28,08,59,24.80
2009,07,28,09,00,24.80
2009,07,28,09,01,24.90
2009,07,28,09,02,24.90
2009,07,28,09,03,25.00
2009,07,28,09,04,25.10
2009,07,28,09,05,25.20
2009,07,28,09,06,25.30
2009,07,28,09,07,25.30
2009,07,28,09,08,25.40
2009,07,28,09,09,25.50
2009,07,28,09,10,25.60
2009,07,28,09,11,25.60
2009,07,28,09,12,25.70
2009,07,28,09,13,25.80
2009,07,28,09,14,25.80
2009,07,28,09,15,25.70
2009,07,28,09,16,25.60
2009,07,28,09,17,25.40
2009,07,28,09,18,25.30
2009,07,28,09,19,25.20
2009,07,28,09,20,25.10
2009,07,28,09,21,25.00
2009,07,28,09,22,24.90
2009,07,28,09,23,24.90
2009,07,28,09,24,24.90
2009,07,28,09,25,24.90
2009,07,28,09,26,24.80
2009,07,28,09,27,24.80
2009,07,28,09,28,24.80
2009,07,28,09,29,24.90
2009,07,28,09,30,24.90
2009,07,28,09,31,24.90
2009,07,28,09,32,24.90
2009,07,28,09,33,25.00
2009,07,28,09,34,25.00
2009,07,28,09,35,25.10
2009,07,28,09,36,25.10
2009,07,28,09,37,25.20
2009,07,28,09,38,25.20
2009,07,28,09,39,25.20
2009,07,28,09,40,25.30
2009,07,28,09,41,25.30
2009,07,28,09,42,25.30
2009,07,28,09,43,25.30
2009,07,28,09,44,25.40
2009,07,28,09,45,25.40
2009,07,28,09,46,25.40
2009,07,28,09,47,25.40
2009,07,28,09,48,25.50
2009,07,28,09,49,25.50
2009,07,28,09,50,25.50
2009,07,28,09,51,25.50
2009,07,28,09,52,25.50
2009,07,28,09,53,25.60
2009,07,28,09,54,25.60
2009,07,28,09,55,25.60
2009,07,28,09,56,25.60
2009,07,28,09,57,25.60
2009,07,28,09,58,25.60
2009,07,28,09,59,25.50
2009,07,28,10,00,25.40
2009,07,28,10,01,25.40
2009,07,28,10,02,25.30
2009,07,28,10,03,25.30
2009,07,28,10,04,25.30
2009,07,28,10,05,25.30
2009,07,28,10,06,25.30
2009,07,28,10,07,25.30
2009,07,28,10,08,25.30
2009,07,28,10,09,25.30
2009,07,28,10,10,25.30
2009,07,28,10,11,25.20
2009,07,28,10,12,25.20
2009,07,28,10,13,25.10
2009,07,28,10,14,25.20
2009,07,28,10,15,25.20
2009,07,28,10,16,25.20
2009,07,28,10,17,25.30
2009,07,28,10,18,25.20
2009,07,28,10,19,25.10
2009,07,28,10,20,25.00
2009,07,28,10,21,24.90
2009,07,28,10,22,24.90
2009,07,28,10,23,24.90
2009,07,28,10,24,24.80
2009,07,28,10,25,24.90
2009,07,28,10,26,24.80
2009,07,28,10,27,24.80
2009,07,28,10,28,24.90
2009,07,28,10,29,25.00
2009,07,28,10,30,25.10
2009,07,28,10,31,25.20
2009,07,28,10,32,25.30
2009,07,28,10,33,25.50
2009,07,28,10,34,25.60
2009,07,28,10,35,25.70
2009,07,28,10,36,25.70
2009,07,28,10,37,25.70
2009,07,28,10,38,25.80
2009,07,28,10,39,25.90
2009,07,28,10,40,26.00
2009,07,28,10,41,26.10
2009,07,28,10,42,26.20
2009,07,28,10,43,26.30
2009,07,28,10,44,26.40
2009,07,28,10,45,26.40
2009,07,28,10,46,26.50
2009,07,28,10,47,26.40
2009,07,28,10,48,26.40
2009,07,28,10,49,26.40
2009,07,28,10,50,26.40
2009,07,28,10,51,26.40
2009,07,28,10,52,26.40
2009,07,28,10,53,26.50
2009,07,28,10,54,26.60
2009,07,28,10,55,26.60
2009,07,28,10,56,26.70
2009,07,28,10,57,26.70
2009,07,28,10,58,26.70
2009,07,28,10,59,26.70
2009,07,28,11,00,26.60
2009,07,28,11,01,26.60
2009,07,28,11,02,26.50
2009,07,28,11,03,26.50
2009,07,28,11,04,26.40
2009,07,28,11,05,26.30
2009,07,28,11,06,26.30
2009,07,28,11,07,26.20
2009,07,28,11,08,26.20
2009,07,28,11,09,26.10
2009,07,28,11,10,26.10
2009,07,28,11,11,26.10
2009,07,28,11,12,26.10
2009,07,28,11,13,26.10
2009,07,28,11,14,26.10
2009,07,28,11,15,26.10
2009,07,28,11,16,26.10
2009,07,28,11,17,26.20
2009,07,28,11,18,26.20
2009,07,28,11,19,26.30
2009,07,28,11,20,26.30
2009,07,28,11,21,26.30
2009,07,28,11,22,26.40
2009,07,28,11,23,26.40
2009,07,28,11,24,26.50
2009,07,28,11,25,26.50
2009,07,28,11,26,26.60
2009,07,28,11,27,26.70
2009,07,28,11,28,26.70
2009,07,28,11,29,26.80
2009,07,28,11,30,26.80
2009,07,28,11,31,26.90
2009,07,28,11,32,26.90
2009,07,28,11,33,26.90
2009,07,28,11,34,26.90
2009,07,28,11,35,27.00
2009,07,28,11,36,27.10
2009,07,28,11,37,27.20
2009,07,28,11,38,27.20
2009,07,28,11,39,27.30
2009,07,28,11,40,27.30
2009,07,28,11,41,27.40
2009,07,28,11,42,27.50
2009,07,28,11,43,27.50
2009,07,28,11,44,27.60
2009,07,28,11,45,27.70
2009,07,28,11,46,27.70
2009,07,28,11,47,27.70
2009,07,28,11,48,27.80
2009,07,28,11,49,27.80
2009,07,28,11,50,27.90
2009,07,28,11,51,27.90
2009,07,28,11,52,27.90
2009,07,28,11,53,27.90
2009,07,28,11,54,27.90
2009,07,28,11,55,27.90
2009,07,28,11,56,27.90
2009,07,28,11,57,28.00
2009,07,28,11,58,28.00
2009,07,28,11,59,28.10
2009,07,28,12,00,28.10
2009,07,28,12,01,28.10
2009,07,28,12,02,28.10
2009,07,28,12,03,28.00
2009,07,28,12,04,28.00
2009,07,28,12,05,28.00
2009,07,28,12,06,28.00
2009,07,28,12,07,27.90
2009,07,28,12,08,27.90
2009,07,28,12,09,27.80
2009,07,28,12,10,27.80
2009,07,28,12,11,27.80
2009,07,28,12,12,27.80
2009,07,28,12,13,27.80
2009,07,28,12,14,27.80
2009,07,28,12,15,27.90
2009,07,28,12,16,27.90
2009,07,28,12,17,28.00
2009,07,28,12,18,27.90
2009,07,28,12,19,27.90
2009,07,28,12,20,27.80
2009,07,28,12,21,27.80
2009,07,28,12,22,27.80
2009,07,28,12,23,27.80
2009,07,28,12,24,27.80
2009,07,28,12,25,27.80
2009,07,28,12,26,27.80
2009,07,28,12,27,27.90
2009,07,28,12,28,27.90
2009,07,28,12,29,27.90
2009,07,28,12,30,27.90
2009,07,28,12,31,27.90
2009,07,28,12,32,28.00
2009,07,28,12,33,28.00
2009,07,28,12,34,28.10
2009,07,28,12,35,28.10
2009,07,28,12,36,28.00
2009,07,28,12,37,27.90
2009,07,28,12,38,27.90
2009,07,28,12,39,27.90
2009,07,28,12,40,27.90
2009,07,28,12,41,27.90
2009,07,28,12,42,27.90
2009,07,28,12,43,27.90
2009,07,28,12,44,27.90
2009,07,28,12,45,27.90
2009,07,28,12,46,27.90
2009,07,28,12,47,27.90
2009,07,28,12,48,28.00
2009,07,28,12,49,28.10
2009,07,28,12,50,28.10
2009,07,28,12,51,28.20
2009,07,28,12,52,28.20
2009,07,28,12,53,28.20
2009,07,28,12,54,28.20
2009,07,28,12,55,28.10
2009,07,28,12,56,28.10
2009,07,28,12,57,28.00
2009,07,28,12,58,27.90
2009,07,28,12,59,27.90
2009,07,28,13,00,28.00
2009,07,28,13,01,28.00
2009,07,28,13,02,28.10
2009,07,28,13,03,28.10
2009,07,28,13,04,28.10
2009,07,28,13,05,28.10
2009,07,28,13,06,28.20
2009,07,28,13,07,28.20
2009,07,28,13,08,28.20
2009,07,28,13,09,28.20
2009,07,28,13,10,28.30
2009,07,28,13,11,28.30
2009,07,28,13,12,28.30
2009,07,28,13,13,28.40
2009,07,28,13,14,28.50
2009,07,28,13,15,28.60
2009,07,28,13,16,28.70
2009,07,28,13,17,28.70
2009,07,28,13,18,28.70
2009,07,28,13,19,28.70
2009,07,28,13,20,28.70
2009,07,28,13,21,28.70
2009,07,28,13,22,28.70
2009,07,28,13,23,28.70
2009,07,28,13,24,28.70
2009,07,28,13,25,28.80
2009,07,28,13,26,28.90
2009,07,28,13,27,29.00
2009,07,28,13,28,29.20
2009,07,28,13,29,29.30
2009,07,28,13,30,29.30
2009,07,28,13,31,29.40
2009,07,28,13,32,29.40
2009,07,28,13,33,29.40
2009,07,28,13,34,29.50
2009,07,28,13,35,29.60
2009,07,28,13,36,29.70
2009,07,28,13,37,29.70
2009,07,28,13,38,29.80
2009,07,28,13,39,29.80
2009,07,28,13,40,29.80
2009,07,28,13,41,29.80
2009,07,28,13,42,29.70
2009,07,28,13,43,29.80
2009,07,28,13,44,29.80
2009,07,28,13,45,29.80
2009,07,28,13,46,29.90
2009,07,28,13,47,29.80
2009,07,28,13,48,29.70
2009,07,28,13,49,29.70
2009,07,28,13,50,29.70
2009,07,28,13,51,29.70
2009,07,28,13,52,29.70
2009,07,28,13,53,29.80
2009,07,28,13,54,29.80
2009,07,28,13,55,29.80
2009,07,28,13,56,29.90
2009,07,28,13,57,29.90
2009,07,28,13,58,29.90
2009,07,28,13,59,29.90
2009,07,28,14,00,29.90
2009,07,28,14,01,29.90
2009,07,28,14,02,29.90
2009,07,28,14,03,29.90
2009,07,28,14,04,29.90
2009,07,28,14,05,29.80
2009,07,28,14,06,29.70
2009,07,28,14,07,29.70
2009,07,28,14,08,29.70
2009,07,28,14,09,29.70
2009,07,28,14,10,29.60
2009,07,28,14,11,29.60
2009,07,28,14,12,29.60
2009,07,28,14,13,29.60
2009,07,28,14,14,29.60
2009,07,28,14,15,29.50
2009,07,28,14,16,29.50
2009,07,28,14,17,29.50
2009,07,28,14,18,29.40
2009,07,28,14,19,29.40
2009,07,28,14,20,29.40
2009,07,28,14,21,29.40
2009,07,28,14,22,29.40
2009,07,28,14,23,29.40
2009,07,28,14,24,29.30
2009,07,28,14,25,29.30
2009,07,28,14,26,29.30
2009,07,28,14,27,29.20
2009,07,28,14,28,29.20
2009,07,28,14,29,29.20
2009,07,28,14,30,29.20
2009,07,28,14,31,29.30
2009,07,28,14,32,29.40
2009,07,28,14,33,29.40
2009,07,28,14,34,29.30
2009,07,28,14,35,29.30
2009,07,28,14,36,29.30
2009,07,28,14,37,29.20
2009,07,28,14,38,29.10
2009,07,28,14,39,29.20
2009,07,28,14,40,29.20
2009,07,28,14,41,29.20
2009,07,28,14,42,29.20
2009,07,28,14,43,29.30
2009,07,28,14,44,29.30
2009,07,28,14,45,29.30
2009,07,28,14,46,29.40
2009,07,28,14,47,29.40
2009,07,28,14,48,29.40
2009,07,28,14,49,29.40
2009,07,28,14,50,29.40
2009,07,28,14,51,29.40
2009,07,28,14,52,29.40
2009,07,28,14,53,29.30
2009,07,28,14,54,29.30
2009,07,28,14,55,29.30
2009,07,28,14,56,29.20
2009,07,28,14,57,29.20
2009,07,28,14,58,29.20
2009,07,28,14,59,29.10
2009,07,28,15,00,29.00
2009,07,28,15,01,29.10
2009,07,28,15,02,29.10
2009,07,28,15,03,29.10
2009,07,28,15,04,29.10
2009,07,28,15,05,29.10
2009,07,28,15,06,29.10
2009,07,28,15,07,29.10
2009,07,28,15,08,29.10
2009,07,28,15,09,29.00
2009,07,28,15,10,29.00
2009,07,28,15,11,29.00
2009,07,28,15,12,29.00
2009,07,28,15,13,28.90
2009,07,28,15,14,28.90
2009,07,28,15,15,28.90
2009,07,28,15,16,28.90
2009,07,28,15,17,28.90
2009,07,28,15,18,28.90
2009,07,28,15,19,28.90
2009,07,28,15,20,28.90
2009,07,28,15,21,29.00
2009,07,28,15,22,29.10
2009,07,28,15,23,29.30
2009,07,28,15,24,29.40
2009,07,28,15,25,29.50
2009,07,28,15,26,29.60
2009,07,28,15,27,29.70
2009,07,28,15,28,29.80
2009,07,28,15,29,29.80
2009,07,28,15,30,29.80
2009,07,28,15,31,29.90
2009,07,28,15,32,29.90
2009,07,28,15,33,29.90
2009,07,28,15,34,29.90
2009,07,28,15,35,29.80
2009,07,28,15,36,29.80
2009,07,28,15,37,29.80
2009,07,28,15,38,29.80
2009,07,28,15,39,29.70
2009,07,28,15,40,29.70
2009,07,28,15,41,29.70
2009,07,28,15,42,29.80
2009,07,28,15,43,29.80
2009,07,28,15,44,29.70
2009,07,28,15,45,29.70
2009,07,28,15,46,29.70
2009,07,28,15,47,29.60
2009,07,28,15,48,29.60
2009,07,28,15,49,29.60
2009,07,28,15,50,29.50
2009,07,28,15,51,29.40
2009,07,28,15,52,29.40
2009,07,28,15,53,29.40
2009,07,28,15,54,29.30
2009,07,28,15,55,29.40
2009,07,28,15,56,29.40
2009,07,28,15,57,29.40
2009,07,28,15,58,29.50
2009,07,28,15,59,29.50
2009,07,28,16,00,29.60
2009,07,28,16,01,29.50
2009,07,28,16,02,29.50
2009,07,28,16,03,29.40
2009,07,28,16,04,29.40
2009,07,28,16,05,29.40
2009,07,28,16,06,29.30
2009,07,28,16,07,29.20
2009,07,28,16,08,29.20
2009,07,28,16,09,29.20
2009,07,28,16,10,29.20
2009,07,28,16,11,29.20
2009,07,28,16,12,29.20
2009,07,28,16,13,29.30
2009,07,28,16,14,29.30
2009,07,28,16,15,29.30
2009,07,28,16,16,29.50
2009,07,28,16,17,29.60
2009,07,28,16,18,29.80
2009,07,28,16,19,29.80
2009,07,28,16,20,29.90
2009,07,28,16,21,30.00
2009,07,28,16,22,30.10
2009,07,28,16,23,30.20
2009,07,28,16,24,30.20
2009,07,28,16,25,30.30
2009,07,28,16,26,30.20
2009,07,28,16,27,30.20
2009,07,28,16,28,30.20
2009,07,28,16,29,30.30
2009,07,28,16,30,30.30
2009,07,28,16,31,30.40
2009,07,28,16,32,30.50
2009,07,28,16,33,30.50
2009,07,28,16,34,30.60
2009,07,28,16,35,30.60
2009,07,28,16,36,30.60
2009,07,28,16,37,30.60
2009,07,28,16,38,30.70
2009,07,28,16,39,30.70
2009,07,28,16,40,30.80
2009,07,28,16,41,30.90
2009,07,28,16,42,31.00
2009,07,28,16,43,31.10
2009,07,28,16,44,31.20
2009,07,28,16,45,31.20
2009,07,28,16,46,31.20
2009,07,28,16,47,31.30
2009,07,28,16,48,31.40
2009,07,28,16,49,31.40
2009,07,28,16,50,31.50
2009,07,28,16,51,31.40
2009,07,28,16,52,31.40
2009,07,28,16,53,31.40
2009,07,28,16,54,31.40
2009,07,28,16,55,31.40
2009,07,28,16,56,31.40
2009,07,28,16,57,31.40
2009,07,28,16,58,31.40
2009,07,28,16,59,31.40
2009,07,28,17,00,31.40
2009,07,28,17,01,31.30
2009,07,28,17,02,31.30
2009,07,28,17,03,31.30
2009,07,28,17,04,31.30
2009,07,28,17,05,31.30
2009,07,28,17,06,31.30
2009,07,28,17,07,31.40
2009,07,28,17,08,31.40
2009,07,28,17,09,31.40
2009,07,28,17,10,31.40
2009,07,28,17,11,31.40
2009,07,28,17,12,31.40
2009,07,28,17,13,31.30
2009,07,28,17,14,31.30
2009,07,28,17,15,31.40
2009,07,28,17,16,31.40
2009,07,28,17,17,31.50
2009,07,28,17,18,31.60
2009,07,28,17,19,31.60
2009,07,28,17,20,31.60
2009,07,28,17,21,31.60
2009,07,28,17,22,31.60
2009,07,28,17,23,31.60